Weather reports worldwide

Advertisment
Valladolid, Spain (8141): temperature & dewpoint: 09.10.2019 20:00:00 - 15.10.2019 20:00:00 (CEST)Valladolid, Spain (8141): wind speed: 09.10.2019 20:00:00 - 15.10.2019 20:00:00 (CEST)Valladolid, Spain (8141): wind direction: 09.10.2019 20:00:00 - 15.10.2019 20:00:00 (CEST)Valladolid, Spain (8141): reduced air pressure: 09.10.2019 20:00:00 - 15.10.2019 20:00:00 (CEST)Valladolid, Spain (8141): visibility: 09.10.2019 20:00:00 - 15.10.2019 20:00:00 (CEST)Valladolid, Spain (8141): precipitation: 09.10.2019 20:00:00 - 15.10.2019 20:00:00 (CEST)
Date & Time tt [°C] td [°C] ff [km/h] ff [kn] dd ppp [hPa] vv [km] rr [mm]
15.10.2019 20:00:00 - - - - - - - -
15.10.2019 19:00:00 13,6 4,2 9 5 WSW 1019,6 19 0,0
15.10.2019 18:00:00 14,3 3,4 11 6 WSW 1019,2 19 0,0
15.10.2019 17:00:00 14,4 4,4 15 8 W 1019,5 30 -
15.10.2019 16:00:00 14,9 4,8 13 7 WSW 1019,5 19 0,0
15.10.2019 15:00:00 14,0 4,6 13 7 W 1020,0 19 0,0
15.10.2019 14:00:00 13,2 5,1 13 7 SW 1020,6 30 -
15.10.2019 13:00:00 11,8 5,9 11 6 WSW 1021,4 18 0,0
15.10.2019 12:00:00 9,9 6,4 8 4 WSW 1022,2 14 0,0
15.10.2019 11:00:00 8,3 5,4 4 2 S 1022,9 20 -
15.10.2019 10:00:00 6,7 4,7 5 3 S 1022,6 12 0,0
15.10.2019 09:00:00 5,1 3,9 13 7 SW 1022,3 13 0,0
15.10.2019 08:00:00 5,0 3,7 5 3 S 1022,3 15 -
15.10.2019 07:00:00 5,4 3,9 8 4 SSW 1021,8 14 0,0
15.10.2019 06:00:00 5,6 3,8 8 4 S 1021,3 14 0,0
15.10.2019 05:00:00 6,1 3,9 4 2 S 1020,6 20 -
15.10.2019 04:00:00 6,8 3,9 11 6 SW 1020,5 16 0,0
15.10.2019 03:00:00 6,6 3,9 13 7 W 1020,5 16 0,0
15.10.2019 02:00:00 6,9 4,0 16 9 W 1019,8 20 -
15.10.2019 01:00:00 7,5 4,3 16 9 WSW 1019,0 18 0,0
15.10.2019 00:00:00 7,6 4,5 15 8 WSW 1018,5 19 0,0
14.10.2019 23:00:00 7,6 4,5 13 7 W 1017,9 20 -
14.10.2019 22:00:00 8,1 4,5 16 9 W 1016,8 19 0,0
14.10.2019 21:00:00 8,6 5,9 18 10 WSW 1015,9 13 0,6
14.10.2019 20:00:00 9,9 6,6 9 5 WSW 1015,1 25 -
14.10.2019 19:00:00 10,5 6,8 13 7 WSW 1013,8 19 0,2
14.10.2019 18:00:00 10,4 8,5 9 5 SW 1013,2 19 0,6
14.10.2019 17:00:00 10,7 7,9 13 7 SW 1012,8 10 -
14.10.2019 16:00:00 12,2 9,8 11 6 SW 1011,9 2,5 1,0
14.10.2019 15:00:00 13,1 9,5 13 7 WSW 1011,2 3,2 0,0
14.10.2019 14:00:00 16,3 6,4 11 6 WSW 1010,3 30 -
14.10.2019 13:00:00 16,3 6,4 15 8 SW 1010,6 19 0,0
14.10.2019 12:00:00 13,8 7,1 16 9 WSW 1011,3 20 0,0
14.10.2019 11:00:00 12,2 7,7 13 7 W 1011,3 25 -
14.10.2019 10:00:00 15,4 9,3 16 9 SW 1008,3 14 0,0
14.10.2019 09:00:00 15,0 9,8 13 7 SW 1007,6 13 0,0
14.10.2019 08:00:00 15,0 8,0 5 3 SSW 1007,6 20 -
14.10.2019 07:00:00 15,6 8,1 5 3 WSW 1006,9 13 0,0
14.10.2019 06:00:00 15,5 8,2 2 1 SE 1006,9 13 0,0
14.10.2019 05:00:00 14,9 7,9 4 2 SW 1007,4 20 -
14.10.2019 04:00:00 14,9 7,4 2 1 WNW 1008,2 13 0,0
14.10.2019 03:00:00 15,1 7,1 2 1 SE 1009,3 14 0,0
14.10.2019 02:00:00 15,2 7,2 2 1 SSW 1010,0 20 -
14.10.2019 01:00:00 15,5 6,5 4 2 S 1010,8 14 0,0
14.10.2019 00:00:00 15,7 6,7 4 2 WSW 1011,4 15 0,0
13.10.2019 23:00:00 16,6 6,4 4 2 SW 1011,7 20 -
13.10.2019 22:00:00 17,5 7,0 4 2 SSW 1011,5 15 0,0
13.10.2019 21:00:00 18,9 6,7 4 2 SW 1011,3 16 0,0
13.10.2019 20:00:00 20,5 6,4 8 4 SW 1010,1 30 -
13.10.2019 19:00:00 22,1 5,5 8 4 WSW 1009,4 17 0,0
13.10.2019 18:00:00 23,5 4,9 16 9 WSW 1009,4 18 0,0
13.10.2019 17:00:00 24,2 6,0 9 5 SSW 1009,3 30 -
13.10.2019 16:00:00 23,4 6,6 15 8 WSW 1010,1 20 0,0
13.10.2019 15:00:00 23,0 7,5 9 5 SW 1010,7 18 0,0
13.10.2019 14:00:00 21,6 8,5 8 4 WSW 1011,8 25 -
13.10.2019 13:00:00 19,5 9,9 9 5 SW 1013,1 14 0,0
13.10.2019 12:00:00 18,1 10,2 11 6 WSW 1013,8 13 0,0
13.10.2019 11:00:00 16,7 10,3 9 5 WSW 1014,0 20 -
13.10.2019 10:00:00 14,8 11,2 8 4 SSW 1014,4 8 0,0
13.10.2019 09:00:00 13,8 11,1 5 3 SSW 1014,2 7 0,0
13.10.2019 08:00:00 14,6 11,4 8 4 WSW 1013,4 18 -
13.10.2019 07:00:00 14,7 11,3 8 4 WSW 1012,9 8 0,0
13.10.2019 06:00:00 15,7 10,5 8 4 WSW 1012,3 12 0,0
13.10.2019 05:00:00 16,3 8,0 11 6 WSW 1012,0 20 -
13.10.2019 04:00:00 16,5 7,7 5 3 WSW 1012,3 17 0,0
13.10.2019 03:00:00 17,2 7,5 8 4 S 1012,3 18 0,0
13.10.2019 02:00:00 17,9 7,6 4 2 S 1012,3 20 -
13.10.2019 01:00:00 19,3 8,0 9 5 SSW 1012,2 19 0,0
13.10.2019 00:00:00 20,2 8,2 13 7 S 1011,7 18 0,0
12.10.2019 23:00:00 20,3 7,6 8 4 SSE 1011,5 25 -
12.10.2019 22:00:00 21,2 7,1 5 3 SSE 1010,7 17 0,0
12.10.2019 21:00:00 22,7 6,9 5 3 SSE 1010,4 15 0,0
12.10.2019 20:00:00 24,2 5,5 8 4 S 1009,7 30 -
12.10.2019 19:00:00 25,8 5,9 9 5 SSW 1008,9 15 0,0
12.10.2019 18:00:00 26,9 5,8 11 6 SW 1008,4 20 0,0
12.10.2019 17:00:00 27,0 7,4 13 7 S 1008,8 30 -
12.10.2019 16:00:00 26,1 6,7 13 7 SW 1009,6 20 0,0
12.10.2019 15:00:00 25,7 6,8 13 7 SSW 1010,5 20 0,0
12.10.2019 14:00:00 25,1 10,2 8 4 SW 1011,4 20 -
12.10.2019 13:00:00 23,9 10,2 4 2 SSE 1012,7 13 0,0
12.10.2019 12:00:00 21,9 10,7 4 2 SSW 1013,7 12 0,0
12.10.2019 11:00:00 18,9 11,5 4 2 S 1014,5 20 -
12.10.2019 10:00:00 16,9 12,6 2 1 W 1014,8 8 0,0
12.10.2019 09:00:00 16,5 11,4 2 1 SSE 1014,7 10 0,0
12.10.2019 08:00:00 16,7 11,4 2 1 NW 1014,4 15 -
12.10.2019 07:00:00 17,1 11,4 4 2 SSW 1014,3 10 0,0
12.10.2019 06:00:00 17,3 11,6 5 3 S 1014,2 10 0,0
12.10.2019 05:00:00 17,3 11,6 5 3 S 1014,1 15 -
12.10.2019 04:00:00 17,8 11,4 5 3 S 1014,4 11 0,0
12.10.2019 03:00:00 17,0 11,7 5 3 WSW 1015,1 10 0,0
12.10.2019 02:00:00 16,6 12,5 4 2 S 1015,5 15 -
12.10.2019 01:00:00 17,4 12,9 5 3 SSE 1015,8 10 0,0
12.10.2019 00:00:00 17,8 13,5 4 2 SSE 1015,7 10 0,0
11.10.2019 23:00:00 18,0 14,1 2 1 S 1015,5 15 -
11.10.2019 22:00:00 18,7 15,2 2 1 ESE 1014,9 10 0,0
11.10.2019 21:00:00 19,6 14,8 4 2 NNW 1014,4 9 0,8
11.10.2019 20:00:00 24,9 11,1 9 5 WSW 1012,7 18 -
11.10.2019 19:00:00 26,3 9,6 4 2 WSW 1011,8 10 0,0
11.10.2019 18:00:00 27,4 9,2 8 4 SW 1011,7 20 0,0
11.10.2019 17:00:00 28,0 8,8 9 5 WSW 1012,0 30 -
11.10.2019 16:00:00 28,4 8,6 9 5 W 1012,7 18 0,0
11.10.2019 15:00:00 27,2 8,1 4 2 SSW 1014,0 19 0,0
11.10.2019 14:00:00 25,1 7,7 5 3 S 1015,7 30 -
11.10.2019 13:00:00 21,4 8,3 4 2 E 1017,8 8 0,0
11.10.2019 12:00:00 17,1 8,0 4 2 NNE 1019,5 7 0,0
11.10.2019 11:00:00 14,1 6,9 2 1 NNE 1020,7 25 -
11.10.2019 10:00:00 11,1 5,6 4 2 N 1021,4 8 0,0
11.10.2019 09:00:00 9,3 4,9 4 2 N 1021,3 9 0,0
11.10.2019 08:00:00 9,2 4,6 2 1 NNW 1021,2 20 -
11.10.2019 07:00:00 9,6 4,6 4 2 NNE 1020,8 10 0,0
11.10.2019 06:00:00 9,9 4,7 2 1 NNW 1020,7 10 0,0
11.10.2019 05:00:00 10,5 4,4 4 2 NNW 1020,5 15 -
11.10.2019 04:00:00 11,3 4,3 2 1 NE 1020,6 11 0,0
11.10.2019 03:00:00 12,3 4,3 4 2 NNW 1020,5 10 0,0
11.10.2019 02:00:00 13,0 3,6 2 1 N 1020,3 18 -
11.10.2019 01:00:00 13,8 3,5 2 1 N 1020,3 11 0,0
11.10.2019 00:00:00 15,0 3,8 2 1 NNW 1019,9 11 0,0
10.10.2019 23:00:00 16,0 5,3 2 1 N 1019,6 20 -
10.10.2019 22:00:00 17,0 5,3 4 2 NW 1018,7 9 0,0
10.10.2019 21:00:00 18,4 5,6 5 3 W 1018,0 10 0,0
10.10.2019 20:00:00 20,3 6,2 4 2 NW 1017,2 30 -
10.10.2019 19:00:00 21,9 6,1 2 1 N 1016,6 13 0,0
10.10.2019 18:00:00 23,1 5,9 4 2 NE 1016,3 14 0,0
10.10.2019 17:00:00 23,1 6,8 4 2 N 1016,5 30 -
10.10.2019 16:00:00 22,8 7,3 5 3 NNE 1017,1 15 0,0
10.10.2019 15:00:00 21,9 7,7 5 3 NNE 1018,0 14 0,0
10.10.2019 14:00:00 20,5 7,8 5 3 NE 1019,3 30 -
10.10.2019 13:00:00 18,3 8,0 4 2 ENE 1020,5 11 0,0
10.10.2019 12:00:00 15,0 7,3 5 3 N 1022,1 10 0,0
10.10.2019 11:00:00 12,4 6,7 5 3 NE 1023,1 20 -
10.10.2019 10:00:00 10,2 6,2 4 2 N 1023,4 9 0,0
10.10.2019 09:00:00 8,4 5,7 4 2 N 1023,5 8 0,0
10.10.2019 08:00:00 8,5 5,8 5 3 N 1023,4 15 -
10.10.2019 07:00:00 8,6 5,7 5 3 N 1022,9 9 0,0
10.10.2019 06:00:00 9,1 5,8 5 3 N 1022,8 9 0,0
10.10.2019 05:00:00 9,3 5,7 4 2 NW 1022,6 15 -
10.10.2019 04:00:00 10,0 5,8 5 3 N 1022,5 10 0,0
10.10.2019 03:00:00 10,5 5,7 5 3 N 1022,6 10 0,0
10.10.2019 02:00:00 11,0 5,7 5 3 N 1022,5 20 -
10.10.2019 01:00:00 11,8 5,9 2 1 NNW 1022,2 11 0,0
10.10.2019 00:00:00 12,6 6,2 4 2 N 1022,0 11 0,0
09.10.2019 23:00:00 14,5 6,6 5 3 NE 1021,1 30 -
09.10.2019 22:00:00 16,3 6,1 4 2 NNE 1020,0 11 0,0
09.10.2019 21:00:00 17,8 6,0 4 2 NNE 1019,0 13 0,0
09.10.2019 20:00:00 19,2 6,3 4 2 N 1017,7 30 -

tt = temperature
td = dewpoint
ff = wind speed
dd = wind direction
ppp = reduced air pressure
vv = visibility
rr = precipitation

Next stations